Fargo, ND

3:59 PM CDT on May 23, 2018 (GMT -0500)
Hector International

Weather History for KFAR - May, 2013

Change the Weather History Date:

Saturday, May 25, 2013

  Actual Average Record
Temperature  
Mean Temperature 63 °F 60 °F  
Max Temperature 72 °F 72 °F 92 °F (1959)
Min Temperature 54 °F 48 °F 30 °F (1983)
Degree Days  
Heating Degree Days 2 6  
Month to date heating degree days 240 239  
Since 1 July heating degree days 9232 8695  
Cooling Degree Days 0 1  
Month to date cooling degree days 21 21  
Year to date cooling degree days 21 24  
Growing Degree Days 13 (Base 50)    
Moisture  
Dew Point 49 °F    
Average Humidity 65    
Maximum Humidity 77    
Minimum Humidity 53    
Precipitation  
Precipitation T in 0.10 in 1.28 in (1906)
Month to date precipitation 2.44 2.20  
Year to date precipitation 8.18 6.20  
Snow  
Snow 0.00 in 0.00 in - ()
Month to date snowfall 0.0 0.0  
Since 1 July snowfall 68.4 50.4  
Snow Depth 0.00 in    
Sea Level Pressure  
Sea Level Pressure 30.12 in    
Wind  
Wind Speed 17 mph (SE)    
Max Wind Speed 26 mph    
Max Gust Speed 36 mph    
Visibility 10 miles    
Events      
T = Trace of Precipitation, MM = Missing Value Source: NWS Daily Summary

Daily Weather History Graph

Daily Weather History Graph

Search for Another Location

Airport or City:

Astronomy

May. 25, 2013 Rise Set
Actual Time 5:41 AM CDT 9:07 PM CDT
Civil Twilight 5:03 AM CDT 9:45 PM CDT
Nautical Twilight 4:14 AM CDT 10:35 PM CDT
Astronomical Twilight 3:10 AM CDT 11:40 PM CDT
Moon 9:56 PM CDT (5/25) 6:10 AM CDT (5/25)
Length of Visible Light 16h 41m
Length of Day
15h 26m
Full, 100% of the Moon is Illuminated
May 25
Full
May 31
Last Quarter
Jun 8
New
Jun 16
First Quarter
Jun 23
Full

Hourly Weather History & Observations

Time (CDT) Temp. Dew Point Humidity Pressure Visibility Wind Dir Wind Speed Gust Speed Precip Events Conditions
12:53 AM 54.0 °F 48.9 °F 83% 30.12 in 10.0 mi ESE 17.3 mph 24.2 mph 0.00 in   Overcast
1:53 AM 55.0 °F 48.9 °F 80% 30.10 in 10.0 mi ESE 18.4 mph 24.2 mph 0.00 in   Overcast
2:53 AM 55.9 °F 48.9 °F 77% 30.08 in 10.0 mi ESE 19.6 mph 24.2 mph N/A   Overcast
3:53 AM 55.9 °F 48.9 °F 77% 30.08 in 10.0 mi SE 16.1 mph 23.0 mph N/A   Overcast
4:53 AM 57.0 °F 48.9 °F 74% 30.09 in 10.0 mi SE 15.0 mph 25.3 mph N/A   Overcast
5:53 AM 55.9 °F 48.0 °F 75% 30.10 in 10.0 mi SSE 16.1 mph - N/A   Mostly Cloudy
6:53 AM 57.0 °F 48.0 °F 72% 30.11 in 10.0 mi SE 12.7 mph 21.9 mph N/A   Partly Cloudy
7:53 AM 59.0 °F 48.9 °F 69% 30.11 in 10.0 mi SE 16.1 mph - N/A   Clear
8:53 AM 60.1 °F 48.9 °F 67% 30.12 in 10.0 mi SE 20.7 mph 25.3 mph N/A   Clear
9:53 AM 63.0 °F 50.0 °F 63% 30.12 in 10.0 mi SSE 13.8 mph 31.1 mph N/A   Mostly Cloudy
10:53 AM 64.0 °F 48.9 °F 58% 30.14 in 10.0 mi SSE 16.1 mph 29.9 mph N/A   Overcast
11:53 AM 66.9 °F 50.0 °F 54% 30.12 in 10.0 mi SSE 18.4 mph 29.9 mph N/A   Mostly Cloudy
12:53 PM 66.9 °F 51.1 °F 57% 30.12 in 10.0 mi SSE 21.9 mph 32.2 mph N/A   Scattered Clouds
1:53 PM 68.0 °F 51.1 °F 55% 30.12 in 10.0 mi SSE 23.0 mph 31.1 mph N/A   Partly Cloudy
2:53 PM 70.0 °F 51.1 °F 51% 30.11 in 10.0 mi South 23.0 mph 29.9 mph N/A   Partly Cloudy
3:53 PM 70.0 °F 51.1 °F 51% 30.10 in 10.0 mi SSE 23.0 mph 31.1 mph N/A   Partly Cloudy
4:53 PM 66.9 °F 50.0 °F 54% 30.12 in 10.0 mi SSE 24.2 mph 31.1 mph N/A   Overcast
5:53 PM 66.0 °F 50.0 °F 56% 30.12 in 10.0 mi SE 18.4 mph 28.8 mph N/A   Overcast
6:53 PM 64.9 °F 50.0 °F 58% 30.12 in 10.0 mi SSE 18.4 mph - N/A   Mostly Cloudy
7:53 PM 63.0 °F 48.9 °F 60% 30.13 in 10.0 mi SSE 17.3 mph 24.2 mph N/A   Scattered Clouds
8:53 PM 60.1 °F 48.9 °F 67% 30.13 in 10.0 mi SSE 19.6 mph 26.5 mph N/A   Scattered Clouds
9:53 PM 59.0 °F 48.9 °F 69% 30.16 in 10.0 mi South 13.8 mph - N/A   Overcast
10:53 PM 57.9 °F 48.0 °F 70% 30.16 in 10.0 mi SSE 16.1 mph 28.8 mph N/A   Overcast
11:53 PM 57.0 °F 48.0 °F 72% 30.17 in 10.0 mi SSE 12.7 mph 25.3 mph N/A   Overcast